Fayetteville, AR

6:26 PM CDT on May 21, 2018 (GMT -0500)
Drake

Weather History for KFYV - December, 2011

Change the Weather History Date:

Thursday, December 15, 2011

  Actual Average Record
Temperature  
Mean Temperature 48 °F 37 °F  
Max Temperature 57 °F 48 °F 71 °F (2006)
Min Temperature 39 °F 27 °F -2 °F (1958)
Degree Days  
Heating Degree Days 17 28  
Month to date heating degree days 391  
Since 1 July heating degree days 1220  
Moisture  
Dew Point 41 °F    
Average Humidity 83    
Maximum Humidity 94    
Minimum Humidity 66    
Precipitation  
Precipitation 0.03 in 0.10 in 1.21 in (2000)
Month to date precipitation 1.68  
Year to date precipitation 46.95  
Sea Level Pressure  
Sea Level Pressure 30.16 in    
Wind  
Wind Speed 5 mph (North)    
Max Wind Speed 10 mph    
Max Gust Speed -    
Visibility 9 miles    
Events      
T = Trace of Precipitation, MM = Missing Value Source: NWS Daily Summary

Daily Weather History Graph

Daily Weather History Graph

Search for Another Location

Airport or City:

Astronomy

Dec. 15, 2011 Rise Set
Actual Time 7:19 AM CST 5:03 PM CST
Civil Twilight 6:51 AM CST 5:32 PM CST
Nautical Twilight 6:19 AM CST 6:04 PM CST
Astronomical Twilight 5:47 AM CST 6:35 PM CST
Moon 10:22 PM CST (12/15) 10:43 AM CST (12/15)
Length of Visible Light 10h 41m
Length of Day
9h 43m
Waning Gibbous, 74% of the Moon is Illuminated
Dec 15
Waning Gibbous
Dec 17
Last Quarter
Dec 24
New
Jan 1
First Quarter
Jan 9
Full

Hourly Weather History & Observations

Time (CST) Temp. Windchill Dew Point Humidity Pressure Visibility Wind Dir Wind Speed Gust Speed Precip Events Conditions
12:53 AM 57.9 °F - 55.0 °F 90% 29.93 in 10.0 mi North - - N/A   Clear
1:53 AM 55.9 °F - 53.1 °F 90% 29.93 in 10.0 mi North - - N/A   Clear
2:53 AM 55.9 °F - 52.0 °F 87% 29.95 in 10.0 mi North - - N/A   Clear
3:53 AM 54.0 °F - 50.0 °F 86% 29.97 in 10.0 mi North - - N/A   Clear
4:53 AM 52.0 °F - 48.9 °F 89% 30.01 in 10.0 mi North - - N/A   Mostly Cloudy
5:24 AM 50.0 °F - 48.2 °F 94% 30.04 in 10.0 mi North - - N/A   Mostly Cloudy
5:53 AM 48.9 °F - 46.0 °F 90% 30.05 in 9.0 mi North - - N/A   Mostly Cloudy
6:11 AM 48.2 °F - 44.6 °F 87% 30.06 in 10.0 mi North - - N/A   Scattered Clouds
6:53 AM 46.0 °F - 44.1 °F 93% 30.09 in 10.0 mi North - - N/A   Partly Cloudy
7:08 AM 46.4 °F - 42.8 °F 87% 30.10 in 10.0 mi North - - N/A   Mostly Cloudy
7:53 AM 44.6 °F - 42.8 °F 93% 30.11 in 7.0 mi North - - N/A   Scattered Clouds
8:25 AM 44.6 °F - 42.8 °F 93% 30.13 in 7.0 mi North - - N/A   Scattered Clouds
8:35 AM 44.6 °F - 42.8 °F 93% 30.15 in 7.0 mi North - - N/A   Mostly Cloudy
8:53 AM 44.1 °F - 42.1 °F 93% 30.15 in 7.0 mi North - - N/A   Scattered Clouds
9:50 AM 44.6 °F - 41.0 °F 87% 30.21 in 9.0 mi North - - N/A   Mostly Cloudy
9:53 AM 44.1 °F - 41.0 °F 89% 30.20 in 9.0 mi Calm Calm - N/A   Mostly Cloudy
10:03 AM 44.6 °F - 39.2 °F 81% 30.19 in 10.0 mi North - - N/A   Scattered Clouds
10:08 AM 44.6 °F - 39.2 °F 81% 30.20 in 0.8 mi North - - N/A   Mist
10:15 AM 44.6 °F 42.2 °F 39.2 °F 81% 30.20 in - Variable 4.6 mph - N/A   Scattered Clouds
10:32 AM 44.6 °F 39.2 °F 39.2 °F 81% 30.22 in - NNW 10.4 mph - N/A   Scattered Clouds
10:53 AM 44.1 °F 40.8 °F 39.0 °F 82% 30.20 in - North 5.8 mph - 0.03 in   Partly Cloudy
11:53 AM 44.1 °F 41.5 °F 39.9 °F 85% 30.21 in 9.0 mi North 4.6 mph - N/A   Overcast
12:53 PM 45.0 °F 43.5 °F 37.9 °F 76% 30.19 in 10.0 mi NNE 3.5 mph - N/A   Mostly Cloudy
1:53 PM 46.0 °F 44.8 °F 35.1 °F 66% 30.20 in 10.0 mi North 3.5 mph - N/A   Clear
2:53 PM 46.0 °F 43.1 °F 35.1 °F 66% 30.19 in 10.0 mi Variable 5.8 mph - N/A   Clear
3:53 PM 44.1 °F 41.5 °F 36.0 °F 73% 30.22 in 10.0 mi NNW 4.6 mph - N/A   Clear
4:53 PM 43.0 °F 38.8 °F 36.0 °F 76% 30.24 in 10.0 mi NNW 6.9 mph - N/A   Clear
5:53 PM 42.1 °F 36.6 °F 36.0 °F 79% 30.25 in 10.0 mi NNW 9.2 mph - N/A   Clear
6:53 PM 41.0 °F 35.8 °F 34.0 °F 76% 30.28 in 10.0 mi NNW 8.1 mph - N/A   Clear
7:53 PM 41.0 °F 37.1 °F 33.8 °F 76% 30.28 in 10.0 mi North 5.8 mph - N/A   Clear
8:53 PM 41.0 °F 39.0 °F 32.0 °F 70% 30.28 in 10.0 mi North 3.5 mph - N/A   Partly Cloudy
9:53 PM 39.9 °F 35.8 °F 30.9 °F 70% 30.29 in 10.0 mi NNE 5.8 mph - N/A   Clear
10:53 PM 39.9 °F 35.8 °F 32.0 °F 73% 30.29 in 10.0 mi North 5.8 mph - N/A   Mostly Cloudy
11:53 PM 39.0 °F 36.8 °F 32.0 °F 76% 30.31 in 10.0 mi NE 3.5 mph - N/A   Mostly Cloudy